Location: Hartman Creek State Park
(44.3257°N, 89.2134°W)
Time: 01:15:25
(UTC-05:00)

Terra - Visible Passes

Search period start: 28 July 2014 00:00
Search period end: 07 August 2014 00:00
Orbit: 701 x 703 km, 98.2° (Epoch: 27 July)

Date Brightness Start Highest point End Pass type
(mag) Time Alt. Az. Time Alt. Az. Time Alt. Az.
28 Jul 2.5 22:14:32 26° ESE 22:16:37 39° ENE 22:21:02 10° N visible
28 Jul 3.4 23:53:25 22° WSW 23:54:28 24° W 23:58:20 10° NW visible
29 Jul 3.9 21:20:00 10° E 21:22:12 13° ENE 21:24:25 10° NNE visible
29 Jul 1.8 22:57:53 47° S 22:59:17 82° WSW 23:04:04 10° NNW visible
30 Jul 2.9 22:02:21 21° ESE 22:04:32 30° ENE 22:08:40 10° N visible
30 Jul 3.0 23:41:14 29° WSW 23:42:12 31° W 23:46:27 10° NNW visible
31 Jul 4.1 21:09:38 10° ENE 21:10:13 10° ENE 21:10:48 10° NE visible
31 Jul 1.7 22:45:42 46° SSE 22:47:07 76° ENE 22:51:53 10° N visible
01 Aug 4.2 00:24:36 12° W 00:25:25 12° W 00:27:20 10° WNW visible
01 Aug 3.2 21:50:10 17° ESE 21:52:28 24° ENE 21:56:14 10° NNE visible
01 Aug 2.6 23:29:04 37° SW 23:29:58 41° W 23:34:28 10° NNW visible
02 Aug 2.0 22:33:32 40° SE 22:34:58 58° ENE 22:39:39 10° N visible
03 Aug 3.9 00:12:25 16° W 00:13:05 16° W 00:16:03 10° NW visible
03 Aug 3.5 21:38:00 13° E 21:40:25 19° ENE 21:43:43 10° NNE visible
03 Aug 2.2 23:16:53 47° SW 23:17:45 54° W 23:22:25 10° NNW visible
04 Aug 2.3 22:21:22 34° ESE 22:22:51 44° ENE 22:27:22 10° N visible
05 Aug 3.6 00:00:15 21° WSW 00:00:48 21° W 00:04:24 10° NW visible
05 Aug 3.8 21:25:50 10° E 21:28:23 15° ENE 21:31:02 10° NNE visible
05 Aug 1.9 23:04:44 58° SSW 23:05:33 72° WSW 23:10:19 10° NNW visible
06 Aug 2.7 22:09:12 27° ESE 22:10:45 34° ENE 22:15:02 10° N visible
06 Aug 3.2 23:48:06 27° WSW 23:48:31 28° W 23:52:35 10° NW visible
